Date,Time,Wetness (Wet Dry or Ice),Wind Speed (m/s),Temperature (C),Humidity (%),Pressure (mb),Radiation (W/m^2)
2019-05-17,00:00:00,DRY,2.60,12.20,8.0,772.00,0.7
2019-05-17,00:05:00,DRY,1.45,12.15,8.0,772.00,0.9
2019-05-17,00:10:00,DRY,2.77,12.23,8.0,772.00,0.9
2019-05-17,00:15:00,DRY,3.00,12.25,8.0,772.00,1.4
2019-05-17,00:20:00,DRY,3.20,12.33,8.0,772.00,1.0
2019-05-17,00:25:00,DRY,3.60,12.15,8.0,772.00,1.0
2019-05-17,00:30:00,DRY,1.87,12.13,8.0,772.00,0.4
2019-05-17,00:35:00,DRY,3.30,12.35,8.0,772.00,0.9
2019-05-17,00:40:00,DRY,2.50,12.30,8.0,772.00,1.5
2019-05-17,00:45:00,DRY,1.50,12.20,8.0,772.00,1.2
2019-05-17,00:50:00,DRY,2.70,12.20,8.0,772.00,1.5
2019-05-17,00:55:00,DRY,4.10,12.50,8.0,771.50,1.1
2019-05-17,01:00:00,DRY,6.50,12.47,8.0,772.00,1.1
2019-05-17,01:05:00,DRY,4.35,12.35,8.0,772.00,1.4
2019-05-17,01:10:00,DRY,3.67,12.30,8.0,771.67,1.2
2019-05-17,01:15:00,DRY,4.15,12.15,8.0,772.00,0.8
2019-05-17,01:20:00,DRY,2.93,12.13,8.3,772.00,1.3
2019-05-17,01:25:00,DRY,2.90,12.10,8.0,772.00,1.1
2019-05-17,01:30:00,DRY,1.87,11.97,8.7,771.33,2.0
2019-05-17,01:35:00,DRY,2.30,11.95,8.5,771.00,1.4
2019-05-17,01:40:00,DRY,3.27,11.90,8.3,771.00,1.6
2019-05-17,01:45:00,DRY,4.65,12.20,8.0,771.00,1.2
2019-05-17,01:50:00,DRY,2.60,12.00,8.0,771.00,1.5
2019-05-17,01:55:00,DRY,4.60,12.05,8.0,771.00,1.4
2019-05-17,02:00:00,DRY,3.95,12.05,8.0,771.00,0.4
2019-05-17,02:05:00,DRY,1.45,12.10,8.0,771.00,2.0
2019-05-17,02:10:00,DRY,4.35,12.15,8.0,771.00,1.2
2019-05-17,02:15:00,DRY,1.95,12.05,8.0,771.00,1.3
2019-05-17,02:20:00,DRY,2.17,11.90,8.7,771.00,0.2
2019-05-17,02:25:00,DRY,2.35,11.95,8.5,771.00,1.1
2019-05-17,02:30:00,DRY,2.00,12.27,8.7,771.00,1.2
2019-05-17,02:35:00,DRY,0.95,12.15,9.0,771.00,1.1
2019-05-17,02:40:00,DRY,2.00,11.93,9.0,771.00,1.0
2019-05-17,02:45:00,DRY,3.70,11.75,9.0,771.00,1.1
2019-05-17,02:50:00,DRY,4.67,12.17,9.0,771.00,1.2
2019-05-17,02:55:00,DRY,2.35,12.00,9.0,771.00,0.2
2019-05-17,03:00:00,DRY,3.53,12.10,9.0,771.00,1.0
2019-05-17,03:05:00,DRY,4.40,12.00,9.0,771.00,1.6
2019-05-17,03:10:00,DRY,4.20,12.17,9.0,771.00,1.3
2019-05-17,03:15:00,DRY,1.85,12.00,9.0,771.00,1.9
2019-05-17,03:20:00,DRY,4.37,12.07,9.3,771.00,1.3
2019-05-17,03:25:00,DRY,3.75,12.20,9.0,771.00,1.6
2019-05-17,03:30:00,DRY,3.17,12.00,9.0,771.00,1.8
2019-05-17,03:35:00,DRY,2.35,11.80,10.0,771.00,1.2
2019-05-17,03:40:00,DRY,3.33,11.63,9.3,770.67,1.1
2019-05-17,03:45:00,DRY,4.25,11.75,9.0,770.00,0.8
2019-05-17,03:50:00,DRY,5.27,11.83,9.0,770.67,1.6
2019-05-17,03:55:00,DRY,2.90,11.90,9.0,771.00,1.0
2019-05-17,04:00:00,DRY,4.10,11.80,9.0,771.00,0.9
2019-05-17,04:05:00,DRY,4.45,11.80,9.0,770.50,0.8
2019-05-17,04:10:00,DRY,4.13,11.83,9.0,770.33,0.9
2019-05-17,04:15:00,DRY,3.40,11.90,8.5,771.00,1.2
2019-05-17,04:20:00,DRY,3.37,11.80,8.0,771.00,1.0
2019-05-17,04:25:00,DRY,2.15,11.60,8.5,770.50,1.3
2019-05-17,04:30:00,DRY,3.20,11.63,8.0,771.00,1.2
2019-05-17,04:35:00,DRY,1.95,11.65,8.0,771.00,1.2
2019-05-17,04:40:00,DRY,1.20,11.47,8.7,771.00,1.0
2019-05-17,04:45:00,DRY,1.85,11.50,8.5,771.00,1.1
2019-05-17,04:50:00,DRY,1.60,11.53,8.0,771.00,1.8
2019-05-17,04:55:00,DRY,1.55,11.45,8.0,771.00,1.1
2019-05-17,05:00:00,DRY,2.13,11.37,8.0,771.00,1.2
2019-05-17,05:05:00,DRY,1.05,11.20,8.0,771.00,1.2
2019-05-17,05:10:00,DRY,1.43,11.33,8.0,771.00,2.0
2019-05-17,05:15:00,DRY,1.80,11.35,8.0,771.00,0.5
2019-05-17,05:20:00,DRY,1.77,11.13,8.0,771.00,1.1
2019-05-17,05:25:00,DRY,1.05,10.95,8.0,771.00,0.7
2019-05-17,05:30:00,DRY,2.20,10.93,8.7,771.00,1.2
2019-05-17,05:35:00,DRY,1.90,11.05,8.5,771.00,1.6
2019-05-17,05:40:00,DRY,2.77,10.87,9.0,771.00,1.3
2019-05-17,05:45:00,DRY,3.05,10.80,9.0,771.00,1.5
2019-05-17,05:50:00,DRY,1.40,10.77,9.0,771.00,0.6
2019-05-17,05:55:00,DRY,2.55,10.75,9.0,771.00,1.8
2019-05-17,06:00:00,DRY,1.60,10.73,9.0,771.00,1.3
2019-05-17,06:05:00,DRY,2.15,10.80,8.5,771.00,1.8
2019-05-17,06:10:00,DRY,0.97,10.67,9.0,771.00,3.1
2019-05-17,06:15:00,DRY,3.65,10.75,9.0,771.00,6.2
2019-05-17,06:20:00,DRY,2.20,10.70,10.0,771.00,11.8
2019-05-17,06:25:00,DRY,4.50,10.80,9.0,771.00,23.2
2019-05-17,06:30:00,DRY,2.23,11.03,9.3,771.00,36.6
2019-05-17,06:35:00,DRY,2.55,11.30,9.0,771.00,53.1
2019-05-17,06:40:00,DRY,2.03,11.33,9.0,771.00,73.9
2019-05-17,06:45:00,DRY,2.80,11.65,8.5,771.00,96.0
2019-05-17,06:50:00,DRY,2.37,11.87,9.0,771.00,117.0
2019-05-17,06:55:00,DRY,1.25,11.85,9.0,771.00,135.9
2019-05-17,07:00:00,DRY,1.97,11.63,9.0,771.00,155.1
2019-05-17,07:05:00,DRY,1.40,11.75,9.0,771.00,176.2
2019-05-17,07:10:00,DRY,1.67,11.60,10.0,771.00,198.1
2019-05-17,07:15:00,DRY,2.00,11.60,9.5,771.00,219.8
2019-05-17,07:20:00,DRY,0.80,11.77,10.0,771.00,238.8
2019-05-17,07:25:00,DRY,1.50,12.05,9.5,771.00,258.0
2019-05-17,07:30:00,DRY,1.93,12.13,9.0,771.00,277.8
2019-05-17,07:35:00,DRY,2.85,12.30,10.0,771.00,298.9
2019-05-17,07:40:00,DRY,1.70,12.33,10.3,771.00,320.4
2019-05-17,07:45:00,DRY,1.45,12.65,9.0,771.00,341.6
2019-05-17,07:50:00,DRY,2.73,12.73,10.0,771.33,362.7
2019-05-17,07:55:00,DRY,2.50,12.80,9.0,772.00,385.3
2019-05-17,08:00:00,DRY,1.70,12.67,8.7,771.33,406.5
2019-05-17,08:05:00,DRY,2.90,12.70,9.0,771.50,428.3
2019-05-17,08:10:00,DRY,3.70,12.67,9.0,771.67,448.8
2019-05-17,08:15:00,DRY,0.85,13.05,10.0,772.00,469.6
2019-05-17,08:20:00,DRY,2.00,13.33,9.7,772.00,490.8
2019-05-17,08:25:00,DRY,2.55,13.75,9.5,772.00,512.0
2019-05-17,08:30:00,DRY,3.53,13.47,10.7,771.67,532.2
2019-05-17,08:35:00,DRY,2.05,13.20,11.5,771.50,553.7
2019-05-17,08:40:00,DRY,2.83,13.73,11.7,772.00,572.4
2019-05-17,08:45:00,DRY,3.10,13.60,11.0,771.50,592.3
2019-05-17,08:50:00,DRY,1.47,13.67,12.7,772.00,612.8
2019-05-17,08:55:00,DRY,2.45,13.80,13.0,772.00,632.7
2019-05-17,09:00:00,DRY,1.63,14.07,13.3,772.00,650.8
2019-05-17,09:05:00,DRY,2.20,14.25,14.0,772.00,670.7
2019-05-17,09:10:00,DRY,1.83,14.40,13.7,772.00,688.1
2019-05-17,09:15:00,DRY,2.45,14.45,13.5,772.00,708.4
2019-05-17,09:20:00,DRY,1.97,14.47,13.7,772.00,725.2
2019-05-17,09:25:00,DRY,3.90,14.40,12.5,772.00,743.8
2019-05-17,09:30:00,DRY,2.17,14.37,12.3,772.00,762.2
2019-05-17,09:35:00,DRY,1.75,14.55,15.0,772.00,779.7
2019-05-17,09:40:00,DRY,1.73,14.80,13.0,772.00,797.3
2019-05-17,09:45:00,DRY,1.90,14.65,13.5,772.00,814.8
2019-05-17,09:50:00,DRY,2.40,14.73,12.7,772.00,831.6
2019-05-17,09:55:00,DRY,1.60,15.15,13.0,772.00,846.7
2019-05-17,10:00:00,DRY,1.67,15.23,13.0,772.00,863.7
2019-05-17,10:05:00,DRY,2.85,15.00,13.5,772.00,877.6
2019-05-17,10:10:00,DRY,2.63,14.90,15.3,772.00,891.8
2019-05-17,10:15:00,DRY,2.15,15.20,17.0,772.00,908.5
2019-05-17,10:20:00,DRY,2.83,15.17,16.7,772.00,921.4
2019-05-17,10:25:00,DRY,0.85,15.40,17.0,772.00,935.5
2019-05-17,10:30:00,DRY,1.93,15.23,16.3,772.00,948.8
2019-05-17,10:35:00,DRY,3.30,15.70,16.5,772.00,960.0
2019-05-17,10:40:00,DRY,2.70,15.37,16.3,772.00,973.4
2019-05-17,10:45:00,DRY,3.05,15.75,18.5,772.00,983.2
2019-05-17,10:50:00,DRY,2.30,15.67,19.3,772.00,995.6
2019-05-17,10:55:00,DRY,1.60,16.20,18.5,772.00,1005.2
2019-05-17,11:00:00,DRY,3.20,15.93,18.7,772.00,1016.7
2019-05-17,11:05:00,DRY,2.75,15.70,18.5,772.00,1025.6
2019-05-17,11:10:00,DRY,1.93,16.20,19.0,772.00,1038.0
2019-05-17,11:15:00,DRY,2.30,16.55,19.0,772.00,1047.5
2019-05-17,11:20:00,DRY,3.43,16.40,18.7,772.00,1056.3
2019-05-17,11:25:00,DRY,2.65,16.60,18.5,772.00,1062.7
2019-05-17,11:30:00,DRY,2.60,16.47,21.3,772.00,1073.7
2019-05-17,11:35:00,DRY,3.25,16.50,21.5,772.00,1080.1
2019-05-17,11:40:00,DRY,4.13,15.53,21.0,772.33,1087.4
2019-05-17,11:45:00,DRY,3.25,16.95,20.0,772.00,1093.8
2019-05-17,11:50:00,DRY,3.53,16.10,22.7,772.33,1102.8
2019-05-17,11:55:00,DRY,3.60,16.40,22.5,772.00,1108.7
2019-05-17,12:00:00,DRY,2.83,16.37,22.7,772.00,1113.1
2019-05-17,12:05:00,DRY,3.55,16.20,24.0,772.50,1118.1
2019-05-17,12:10:00,DRY,3.03,16.43,23.3,772.00,1122.2
2019-05-17,12:15:00,DRY,3.30,15.65,23.0,772.00,1125.2
2019-05-17,12:20:00,DRY,2.37,16.17,24.7,772.00,1129.8
2019-05-17,12:25:00,DRY,2.80,16.20,25.5,772.00,1136.0
2019-05-17,12:30:00,DRY,3.17,16.27,26.7,772.00,1135.0
2019-05-17,12:35:00,DRY,2.30,16.10,29.0,772.00,1137.1
2019-05-17,12:40:00,DRY,1.90,16.40,28.7,772.00,1140.8
2019-05-17,12:45:00,DRY,2.55,16.10,29.0,772.00,1144.8
2019-05-17,12:50:00,DRY,3.60,15.57,26.7,772.00,1146.2
2019-05-17,12:55:00,DRY,3.40,16.85,24.5,772.00,1141.8
2019-05-17,13:00:00,DRY,1.93,16.90,26.3,772.00,1147.6
2019-05-17,13:05:00,DRY,3.65,17.00,21.5,772.00,1148.0
2019-05-17,13:10:00,DRY,3.33,16.07,25.3,772.00,1149.0
2019-05-17,13:15:00,DRY,4.85,16.70,24.0,772.00,1149.1
2019-05-17,13:20:00,DRY,2.80,17.10,25.0,772.00,1149.6
2019-05-17,13:25:00,DRY,2.10,15.85,18.0,772.00,1150.2
2019-05-17,13:30:00,DRY,4.80,16.00,27.0,772.00,1150.4
2019-05-17,13:35:00,DRY,0.80,16.80,23.0,772.00,1145.4
2019-05-17,13:40:00,DRY,1.70,16.20,20.7,772.00,1142.9
2019-05-17,13:45:00,DRY,2.40,16.00,23.0,772.00,1140.4
2019-05-17,13:50:00,DRY,2.97,16.17,26.0,772.00,1136.1
2019-05-17,13:55:00,DRY,3.55,16.20,22.0,772.00,1133.4
2019-05-17,14:00:00,DRY,2.17,15.93,22.0,772.00,1126.9
2019-05-17,14:05:00,DRY,1.35,16.65,18.0,772.00,1124.2
2019-05-17,14:10:00,DRY,3.10,16.43,20.3,772.00,1118.1
2019-05-17,14:15:00,DRY,3.80,16.20,19.0,772.00,1112.5
2019-05-17,14:20:00,DRY,2.60,16.37,14.0,772.00,1107.3
2019-05-17,14:25:00,DRY,2.50,16.30,14.0,772.00,1102.0
2019-05-17,14:30:00,DRY,2.93,15.67,15.7,772.00,1094.6
2019-05-17,14:35:00,DRY,3.25,15.25,21.5,772.00,1086.3
2019-05-17,14:40:00,DRY,2.50,15.33,19.7,772.00,1077.6
2019-05-17,14:45:00,DRY,3.20,15.55,19.0,772.00,1070.4
2019-05-17,14:50:00,DRY,1.90,15.33,19.0,772.00,1060.8
2019-05-17,14:55:00,DRY,3.10,14.95,26.5,772.00,1049.8
2019-05-17,15:00:00,DRY,3.13,16.13,22.0,772.00,1041.4
2019-05-17,15:05:00,DRY,2.85,16.05,21.0,772.00,1029.2
2019-05-17,15:10:00,DRY,2.83,15.83,22.3,772.00,1020.0
2019-05-17,15:15:00,DRY,2.35,15.70,23.5,772.00,1007.7
2019-05-17,15:20:00,DRY,2.10,14.93,23.3,772.00,996.1
2019-05-17,15:25:00,DRY,1.35,16.20,22.5,772.00,981.8
2019-05-17,15:30:00,DRY,3.17,16.07,18.0,772.00,969.1
2019-05-17,15:35:00,DRY,2.25,16.20,18.5,772.00,957.5
2019-05-17,15:40:00,DRY,1.40,15.80,16.0,772.00,944.0
2019-05-17,15:45:00,DRY,0.75,15.80,18.5,772.00,931.6
2019-05-17,15:50:00,DRY,2.40,15.30,16.7,772.00,916.9
2019-05-17,15:55:00,DRY,3.85,15.20,16.0,772.00,903.0
2019-05-17,16:00:00,DRY,3.03,15.47,14.3,772.00,887.5
2019-05-17,16:05:00,DRY,2.00,15.20,16.0,772.00,873.7
2019-05-17,16:10:00,DRY,2.23,15.53,16.3,772.00,856.6
2019-05-17,16:15:00,DRY,1.65,15.25,18.5,772.00,841.9
2019-05-17,16:20:00,DRY,2.27,15.17,16.0,772.00,825.4
2019-05-17,16:25:00,DRY,2.40,15.05,16.0,772.00,808.2
2019-05-17,16:30:00,DRY,2.90,15.23,17.7,772.00,791.8
2019-05-17,16:35:00,DRY,2.75,14.95,16.5,772.00,774.5
2019-05-17,16:40:00,DRY,2.63,15.17,18.3,772.00,756.6
2019-05-17,16:45:00,DRY,2.30,15.20,20.0,772.00,738.2
2019-05-17,16:50:00,DRY,2.73,14.80,19.3,772.00,720.6
2019-05-17,16:55:00,DRY,1.20,15.30,18.5,772.00,702.6
2019-05-17,17:00:00,DRY,2.07,16.20,19.3,772.00,683.4
2019-05-17,17:05:00,DRY,3.00,15.65,15.0,772.00,667.0
2019-05-17,17:10:00,DRY,2.60,15.10,16.0,772.00,646.0
2019-05-17,17:15:00,DRY,1.20,14.60,20.0,772.00,626.8
2019-05-17,17:20:00,DRY,2.50,14.90,14.3,772.00,606.4
2019-05-17,17:25:00,DRY,3.25,15.15,13.5,772.00,586.2
2019-05-17,17:30:00,DRY,3.03,15.07,11.7,772.00,565.9
2019-05-17,17:35:00,DRY,3.45,15.05,12.0,772.00,547.1
2019-05-17,17:40:00,DRY,2.63,14.97,11.3,772.00,525.5
2019-05-17,17:45:00,DRY,2.95,15.10,10.5,772.00,504.5
2019-05-17,17:50:00,DRY,2.57,15.13,11.7,772.00,484.7
2019-05-17,17:55:00,DRY,3.35,15.00,10.0,772.00,463.7
2019-05-17,18:00:00,DRY,3.57,15.17,11.0,772.00,443.3
2019-05-17,18:05:00,DRY,2.15,14.80,11.5,772.00,421.1
2019-05-17,18:10:00,DRY,2.77,14.90,12.3,772.00,399.6
2019-05-17,18:15:00,DRY,2.50,14.65,11.5,772.00,378.0
2019-05-17,18:20:00,DRY,2.13,14.73,11.7,772.00,357.0
2019-05-17,18:25:00,DRY,2.25,14.85,10.5,772.00,335.4
2019-05-17,18:30:00,DRY,1.47,15.00,10.7,772.00,314.4
2019-05-17,18:35:00,DRY,2.45,15.35,10.0,772.00,293.6
2019-05-17,18:40:00,DRY,2.83,15.10,8.7,772.00,270.8
2019-05-17,18:45:00,DRY,2.30,15.25,10.0,772.00,249.6
2019-05-17,18:50:00,DRY,3.97,14.93,8.7,772.00,229.2
2019-05-17,18:55:00,DRY,1.90,14.75,9.5,772.00,209.4
2019-05-17,19:00:00,DRY,2.77,14.97,8.3,772.00,189.5
2019-05-17,19:05:00,DRY,1.50,14.80,9.0,772.00,170.2
2019-05-17,19:10:00,DRY,1.45,14.70,9.0,772.00,148.6
2019-05-17,19:15:00,DRY,2.70,14.80,9.5,772.00,134.1
2019-05-17,19:20:00,DRY,3.50,14.47,8.3,772.00,110.1
2019-05-17,19:25:00,DRY,2.40,14.40,8.5,772.00,86.8
2019-05-17,19:30:00,DRY,4.07,14.33,8.0,772.00,64.8
2019-05-17,19:35:00,DRY,2.10,14.30,8.5,772.00,47.4
2019-05-17,19:40:00,DRY,1.70,14.27,8.3,772.00,32.6
2019-05-17,19:45:00,DRY,1.60,14.05,9.5,772.00,21.2
2019-05-17,19:50:00,DRY,1.10,13.80,10.0,772.00,14.0
2019-05-17,19:55:00,DRY,1.70,13.80,9.5,772.00,10.3
2019-05-17,20:00:00,DRY,1.27,13.60,9.0,772.00,6.4
2019-05-17,20:05:00,DRY,1.55,13.50,9.0,772.00,4.1
2019-05-17,20:10:00,DRY,0.95,13.30,10.0,772.00,2.2
2019-05-17,20:15:00,DRY,1.20,13.25,9.5,772.00,2.3
2019-05-17,20:20:00,DRY,1.70,13.37,9.0,772.00,1.7
2019-05-17,20:25:00,DRY,1.55,13.40,9.0,772.00,1.1
2019-05-17,20:30:00,DRY,1.50,13.33,9.0,772.00,1.4
2019-05-17,20:35:00,DRY,1.85,13.40,9.0,772.00,0.7
2019-05-17,20:40:00,DRY,1.97,13.23,9.0,772.00,1.1
2019-05-17,20:45:00,DRY,2.25,13.25,9.0,772.00,0.9
2019-05-17,20:50:00,DRY,1.93,13.10,9.0,772.00,1.1
2019-05-17,20:55:00,DRY,1.85,13.10,9.0,772.00,1.5
2019-05-17,21:00:00,DRY,2.73,13.00,9.0,772.00,1.9
2019-05-17,21:05:00,DRY,2.25,13.00,9.0,772.00,1.3
2019-05-17,21:10:00,DRY,2.03,12.93,9.0,772.00,1.3
2019-05-17,21:15:00,DRY,1.90,12.85,9.0,772.00,1.0
2019-05-17,21:20:00,DRY,1.47,12.67,9.7,772.33,1.7
2019-05-17,21:25:00,DRY,2.95,12.65,9.5,773.00,1.1
2019-05-17,21:30:00,DRY,1.97,12.70,9.0,773.00,1.1
2019-05-17,21:35:00,DRY,2.20,12.80,9.0,773.00,1.4
2019-05-17,21:40:00,DRY,2.67,12.83,9.0,773.00,1.5
2019-05-17,21:45:00,DRY,2.20,12.80,9.0,773.00,0.9
2019-05-17,21:50:00,DRY,1.20,12.67,9.7,773.00,1.5
2019-05-17,21:55:00,DRY,0.75,12.70,9.0,773.00,1.7
2019-05-17,22:00:00,DRY,2.60,12.70,10.0,773.00,0.9
2019-05-17,22:05:00,DRY,2.40,12.70,9.5,773.00,1.1
2019-05-17,22:10:00,DRY,2.50,12.73,9.7,773.00,1.3
2019-05-17,22:15:00,DRY,2.50,12.50,10.0,773.00,1.6
2019-05-17,22:20:00,DRY,2.30,12.70,9.7,773.00,0.8
2019-05-17,22:25:00,DRY,0.85,12.60,10.0,773.00,1.1
2019-05-17,22:30:00,DRY,1.10,12.63,9.7,773.00,1.3
2019-05-17,22:35:00,DRY,2.00,12.40,10.0,773.00,1.1
2019-05-17,22:40:00,DRY,1.87,12.67,10.3,773.00,0.4
2019-05-17,22:45:00,DRY,0.75,12.65,10.5,773.00,1.8
2019-05-17,22:50:00,DRY,1.10,12.57,10.7,773.00,1.5
2019-05-17,22:55:00,DRY,1.70,12.55,10.5,773.00,1.9
2019-05-17,23:00:00,DRY,0.97,12.60,10.0,773.00,1.0
2019-05-17,23:05:00,DRY,2.75,12.70,10.5,773.00,1.8
2019-05-17,23:10:00,DRY,1.50,12.73,9.7,773.00,1.7
2019-05-17,23:15:00,DRY,1.80,12.80,10.0,773.00,1.1
2019-05-17,23:20:00,DRY,3.27,12.90,9.0,773.00,0.8
2019-05-17,23:25:00,DRY,3.45,13.00,9.0,773.00,1.5
2019-05-17,23:30:00,DRY,3.47,12.93,9.3,773.00,1.3
2019-05-17,23:35:00,DRY,3.10,12.95,9.0,773.00,1.5
2019-05-17,23:40:00,DRY,2.43,12.93,9.3,773.00,1.3
2019-05-17,23:45:00,DRY,3.65,12.95,9.5,773.00,0.9
2019-05-17,23:50:00,DRY,2.93,12.90,9.7,773.00,1.7
2019-05-17,23:55:00,DRY,3.10,12.80,10.0,773.00,0.8
2019-05-18,00:00:00,DRY,1.93,12.67,11.0,773.00,1.8
2019-05-18,00:05:00,DRY,1.40,12.60,11.0,773.00,0.4
2019-05-18,00:10:00,DRY,1.87,12.53,10.0,773.00,0.9
2019-05-18,00:15:00,DRY,2.20,12.60,11.0,773.00,1.2
2019-05-18,00:20:00,DRY,1.97,12.53,10.3,773.00,1.3
2019-05-18,00:25:00,DRY,4.35,12.55,10.0,773.00,1.5
2019-05-18,00:30:00,DRY,2.43,12.40,11.0,773.00,1.1
2019-05-18,00:35:00,DRY,1.80,12.45,10.0,773.00,0.9
2019-05-18,00:40:00,DRY,1.53,12.43,10.0,773.00,1.2
2019-05-18,00:45:00,DRY,1.45,12.25,10.0,773.00,1.1
2019-05-18,00:50:00,DRY,1.53,12.47,9.3,773.00,1.4
2019-05-18,00:55:00,DRY,0.75,12.15,10.0,773.00,1.2
2019-05-18,01:00:00,DRY,0.87,12.13,10.0,773.00,1.0
2019-05-18,01:05:00,DRY,1.20,11.75,10.0,772.50,1.8
2019-05-18,01:10:00,DRY,0.60,11.77,10.0,773.00,1.2
2019-05-18,01:15:00,DRY,0.70,12.25,9.0,772.50,1.1
2019-05-18,01:20:00,DRY,0.55,11.90,10.0,772.00,1.1
2019-05-18,01:25:00,DRY,2.00,11.75,10.0,772.00,1.1
2019-05-18,01:30:00,DRY,1.70,11.67,11.0,772.00,1.1
2019-05-18,01:35:00,DRY,2.95,11.65,11.0,772.00,1.3
2019-05-18,01:40:00,DRY,3.00,11.53,11.0,772.00,0.7
2019-05-18,01:45:00,DRY,2.75,11.65,10.5,772.00,1.1
2019-05-18,01:50:00,DRY,3.53,11.87,10.7,772.00,1.4
2019-05-18,01:55:00,DRY,3.45,11.25,13.0,772.00,1.7
2019-05-18,02:00:00,DRY,2.03,11.53,11.0,772.00,1.0
2019-05-18,02:05:00,DRY,1.90,11.75,9.5,772.00,1.0
2019-05-18,02:10:00,DRY,4.93,12.00,9.0,771.67,1.4
2019-05-18,02:15:00,DRY,4.05,11.85,9.5,771.50,1.2
2019-05-18,02:20:00,DRY,3.27,11.60,10.0,771.00,0.6
2019-05-18,02:25:00,DRY,1.45,11.80,9.5,771.00,1.0
2019-05-18,02:30:00,DRY,2.13,11.70,9.3,771.00,1.0
2019-05-18,02:35:00,DRY,2.10,11.85,9.0,771.00,2.0
2019-05-18,02:40:00,DRY,3.17,12.07,9.0,771.00,1.2
2019-05-18,02:45:00,DRY,1.50,12.05,9.0,771.00,1.7
2019-05-18,02:50:00,DRY,1.60,12.23,9.0,771.00,1.4
2019-05-18,02:55:00,DRY,1.15,12.20,9.0,771.00,1.1
2019-05-18,03:00:00,DRY,1.40,12.10,9.0,771.00,1.1
2019-05-18,03:05:00,DRY,2.00,12.30,9.0,771.00,1.6
2019-05-18,03:10:00,DRY,0.70,12.20,9.3,771.00,0.7
2019-05-18,03:15:00,DRY,1.45,11.95,9.5,771.00,0.7
2019-05-18,03:20:00,DRY,2.30,11.97,10.0,771.00,1.8
2019-05-18,03:25:00,DRY,2.95,12.00,9.5,771.00,0.9
2019-05-18,03:30:00,DRY,2.70,12.77,8.7,771.00,1.6
2019-05-18,03:35:00,DRY,3.10,13.50,8.0,771.00,0.8
2019-05-18,03:40:00,DRY,2.20,13.53,8.0,771.00,1.7
2019-05-18,03:45:00,DRY,3.20,13.35,8.0,771.00,1.5
2019-05-18,03:50:00,DRY,2.43,12.90,9.0,771.00,1.6
2019-05-18,03:55:00,DRY,2.00,12.50,8.5,771.00,1.1
2019-05-18,04:00:00,DRY,3.20,12.90,8.7,771.00,0.8
2019-05-18,04:05:00,DRY,3.40,12.80,9.0,771.00,0.9
2019-05-18,04:10:00,DRY,2.93,12.93,8.7,771.00,2.0
2019-05-18,04:15:00,DRY,2.35,12.55,9.0,771.00,1.0
2019-05-18,04:20:00,DRY,3.37,12.77,8.7,771.00,1.5
2019-05-18,04:25:00,DRY,5.15,13.45,8.0,771.00,0.5
2019-05-18,04:30:00,DRY,2.30,13.50,8.0,771.00,1.7
2019-05-18,04:35:00,DRY,1.65,13.20,9.0,771.00,1.1
2019-05-18,04:40:00,DRY,1.23,13.10,9.0,771.00,1.2
2019-05-18,04:45:00,DRY,2.50,13.00,9.0,771.00,0.7
2019-05-18,04:50:00,DRY,1.40,12.83,9.0,771.00,1.0
2019-05-18,04:55:00,DRY,1.05,12.70,9.0,771.00,1.2
2019-05-18,05:00:00,DRY,2.07,13.10,8.7,771.00,1.6
2019-05-18,05:05:00,DRY,1.45,13.00,8.5,771.00,1.2
2019-05-18,05:10:00,DRY,2.90,13.03,8.7,771.00,1.1
2019-05-18,05:15:00,DRY,1.45,12.80,9.0,771.00,0.8
2019-05-18,05:20:00,DRY,2.90,12.73,9.0,771.00,0.6
2019-05-18,05:25:00,DRY,2.70,12.85,9.0,771.00,0.7
2019-05-18,05:30:00,DRY,2.90,13.13,9.0,771.00,1.8
2019-05-18,05:35:00,DRY,3.25,12.95,9.5,771.00,0.8
2019-05-18,05:40:00,DRY,1.47,13.03,9.7,771.00,1.9
2019-05-18,05:45:00,DRY,1.60,13.00,11.5,771.00,1.6
2019-05-18,05:50:00,DRY,1.20,13.30,12.3,771.00,0.9
2019-05-18,05:55:00,DRY,1.95,12.95,13.0,771.00,1.1
2019-05-18,06:00:00,DRY,2.27,12.83,13.7,771.00,1.6
2019-05-18,06:05:00,DRY,2.20,13.00,15.0,771.00,2.3
2019-05-18,06:10:00,DRY,3.03,12.70,13.3,771.00,3.0
2019-05-18,06:15:00,DRY,1.65,13.15,14.5,771.00,4.9
2019-05-18,06:20:00,DRY,1.13,12.60,13.7,771.00,7.5
2019-05-18,06:25:00,DRY,1.90,12.80,14.0,771.00,12.4
2019-05-18,06:30:00,DRY,2.13,13.07,13.7,771.00,25.2
2019-05-18,06:35:00,DRY,3.90,12.75,14.5,771.00,42.9
2019-05-18,06:40:00,DRY,2.83,12.97,13.7,771.00,65.7
2019-05-18,06:45:00,DRY,1.00,13.10,14.0,771.00,90.8
2019-05-18,06:50:00,DRY,1.60,13.17,13.3,771.00,111.2
2019-05-18,06:55:00,DRY,1.55,13.00,14.5,771.00,130.9
2019-05-18,07:00:00,DRY,1.80,13.20,15.0,771.00,151.2
2019-05-18,07:05:00,DRY,0.85,13.40,13.0,772.00,169.5
2019-05-18,07:10:00,DRY,1.97,13.37,12.7,771.33,190.6
2019-05-18,07:15:00,DRY,1.85,13.30,13.0,771.50,209.4
2019-05-18,07:20:00,DRY,1.80,13.43,13.3,771.67,230.2
2019-05-18,07:25:00,DRY,1.45,13.50,14.5,771.50,250.6
2019-05-18,07:30:00,DRY,1.90,13.77,12.7,771.00,272.0
2019-05-18,07:35:00,DRY,0.95,13.70,12.5,771.50,295.2
2019-05-18,07:40:00,DRY,1.10,13.80,13.7,771.33,317.4
2019-05-18,07:45:00,DRY,1.75,13.50,15.0,771.00,337.7
2019-05-18,07:50:00,DRY,1.27,13.70,15.3,772.00,360.5
2019-05-18,07:55:00,DRY,2.30,13.80,16.5,771.50,381.4
2019-05-18,08:00:00,DRY,2.37,13.93,15.7,771.00,402.7
2019-05-18,08:05:00,DRY,3.25,13.75,15.5,771.00,424.4
2019-05-18,08:10:00,DRY,2.50,14.03,18.3,771.33,443.8
2019-05-18,08:15:00,DRY,2.85,14.20,18.5,771.50,465.3
2019-05-18,08:20:00,DRY,1.87,14.17,19.3,771.67,486.4
2019-05-18,08:25:00,DRY,2.80,13.90,20.5,771.50,506.1
2019-05-18,08:30:00,DRY,0.77,14.03,20.3,772.00,526.8
2019-05-18,08:35:00,DRY,2.35,13.80,22.5,771.50,547.0
2019-05-18,08:40:00,DRY,1.73,13.90,19.0,771.67,566.9
2019-05-18,08:45:00,DRY,3.35,14.15,22.0,772.00,586.8
2019-05-18,08:50:00,DRY,0.95,14.70,22.0,772.00,602.0
2019-05-18,08:55:00,DRY,3.60,14.65,21.0,772.00,626.8
2019-05-18,09:00:00,DRY,3.90,14.63,21.0,771.67,644.4
2019-05-18,09:05:00,DRY,2.75,15.45,21.0,772.00,663.2
2019-05-18,09:10:00,DRY,2.53,14.87,23.0,772.00,681.8
2019-05-18,09:15:00,DRY,3.70,14.80,22.5,772.00,700.9
2019-05-18,09:20:00,DRY,2.47,14.87,22.7,772.00,719.8
2019-05-18,09:25:00,DRY,4.45,15.30,23.0,772.00,736.6
2019-05-18,09:30:00,DRY,2.93,15.23,23.3,772.00,752.8
2019-05-18,09:35:00,DRY,2.20,15.35,25.0,772.00,769.9
2019-05-18,09:40:00,DRY,1.57,15.53,23.7,772.00,785.8
2019-05-18,09:45:00,DRY,1.65,15.10,25.5,772.00,805.1
2019-05-18,09:50:00,DRY,1.43,16.17,23.3,772.00,819.6
2019-05-18,09:55:00,DRY,1.70,16.00,27.0,772.00,835.0
2019-05-18,10:00:00,DRY,2.13,15.90,27.0,772.00,851.5
2019-05-18,10:05:00,DRY,2.00,15.70,28.5,772.00,864.5
2019-05-18,10:10:00,DRY,2.03,15.63,27.7,772.00,880.7
2019-05-18,10:15:00,DRY,1.80,15.80,25.5,772.00,896.7
2019-05-18,10:20:00,DRY,1.40,16.00,27.3,772.00,910.9
2019-05-18,10:25:00,DRY,2.70,16.05,28.0,772.00,923.8
2019-05-18,10:30:00,DRY,2.27,15.63,28.0,772.00,937.4
2019-05-18,10:35:00,DRY,2.15,15.80,29.5,772.00,950.9
2019-05-18,10:40:00,DRY,2.57,16.23,28.3,772.00,963.9
2019-05-18,10:45:00,DRY,2.55,16.25,30.5,772.00,974.8
2019-05-18,10:50:00,DRY,1.63,16.10,26.0,772.00,988.6
2019-05-18,10:55:00,DRY,2.75,16.30,27.0,772.00,998.4
2019-05-18,11:00:00,DRY,1.83,16.20,27.0,772.00,1008.8
2019-05-18,11:05:00,DRY,2.40,16.95,26.5,772.00,1016.8
2019-05-18,11:10:00,DRY,2.97,16.90,28.0,772.00,1029.3
2019-05-18,11:15:00,DRY,2.90,16.85,27.0,772.00,1036.6
2019-05-18,11:20:00,DRY,1.83,17.17,25.3,772.00,1047.2
2019-05-18,11:25:00,DRY,2.50,16.65,27.5,772.00,1054.3
2019-05-18,11:30:00,DRY,2.20,16.87,28.0,772.00,1065.0
2019-05-18,11:35:00,DRY,2.40,16.85,29.5,772.00,1071.8
2019-05-18,11:40:00,DRY,1.97,16.87,26.7,772.00,1080.5
2019-05-18,11:45:00,DRY,3.50,17.00,26.5,772.00,1088.2
2019-05-18,11:50:00,DRY,2.73,16.67,28.0,772.00,1093.6
2019-05-18,11:55:00,DRY,2.80,16.90,27.5,772.50,1101.8
2019-05-18,12:00:00,DRY,3.43,16.43,27.7,772.00,1106.0
2019-05-18,12:05:00,DRY,2.10,16.65,29.5,772.00,1110.0
2019-05-18,12:10:00,DRY,2.90,16.67,26.0,772.00,1114.5
2019-05-18,12:15:00,DRY,2.45,16.25,24.5,772.00,1119.3
2019-05-18,12:20:00,DRY,2.67,16.67,23.7,772.00,1121.0
2019-05-18,12:25:00,DRY,2.15,16.20,23.0,772.50,1123.9
2019-05-18,12:30:00,DRY,3.07,16.67,25.3,772.00,1125.6
2019-05-18,12:35:00,DRY,3.80,16.35,27.0,772.00,1129.6
2019-05-18,12:40:00,DRY,3.13,16.73,27.3,772.33,1129.2
2019-05-18,12:45:00,DRY,2.50,17.85,23.5,773.00,1133.1
2019-05-18,12:50:00,DRY,1.97,16.67,24.3,772.33,1131.9
2019-05-18,12:55:00,DRY,1.85,15.95,26.0,773.00,1131.9
2019-05-18,13:00:00,DRY,1.73,16.23,24.0,773.00,1131.6
2019-05-18,13:05:00,DRY,2.80,17.30,25.5,773.00,1131.2
2019-05-18,13:10:00,DRY,2.40,17.13,24.7,773.00,1131.7
2019-05-18,13:15:00,DRY,2.20,16.95,25.5,773.00,1130.0
2019-05-18,13:20:00,DRY,2.57,16.80,22.3,773.00,1130.8
2019-05-18,13:25:00,DRY,1.55,16.75,22.5,773.00,1128.5
2019-05-18,13:30:00,DRY,3.30,18.10,21.0,773.00,1128.5
2019-05-18,13:35:00,DRY,1.80,17.70,23.0,773.00,1129.2
2019-05-18,13:40:00,DRY,3.00,17.30,22.7,772.67,1123.4
2019-05-18,13:45:00,DRY,3.05,17.70,21.5,773.00,1122.2
2019-05-18,13:50:00,DRY,1.80,17.13,21.3,773.00,1119.7
2019-05-18,13:55:00,DRY,3.00,17.65,23.0,773.00,1115.6
2019-05-18,14:00:00,DRY,2.13,17.37,22.0,773.00,1109.2
2019-05-18,14:05:00,DRY,2.55,17.20,22.0,773.00,1105.9
2019-05-18,14:10:00,DRY,3.63,16.90,22.3,773.00,1099.0
2019-05-18,14:15:00,DRY,1.45,16.95,22.0,773.00,1093.8